This is the latest recevied weather packets stored in our database for station/object DG9MHV-10. If no packets are shown the sender has not sent any weather packets the latest 10 day(s).
| Time | Temp. | Humidity | Pressure | Rain* | Wind** | Luminosity | Snow |
|---|---|---|---|---|---|---|---|
| 1778073971 | 18.33° C | 100% | 1005.7 hPa | - | - | - | - |
| 1778073070 | 18.89° C | 100% | 1005.8 hPa | - | - | - | - |
| 1778072170 | 21.11° C | 100% | 1005.9 hPa | - | - | - | - |
| 1778071270 | 22.22° C | 100% | 1005.9 hPa | - | - | - | - |
| 1778070369 | 22.22° C | 100% | 1006 hPa | - | - | - | - |
| 1778069469 | 21.11° C | 100% | 1006.1 hPa | - | - | - | - |
| 1778068569 | 21.67° C | 100% | 1006.2 hPa | - | - | - | - |
| 1778067669 | 22.78° C | 100% | 1006.2 hPa | - | - | - | - |
| 1778066769 | 21.67° C | 100% | 1006.1 hPa | - | - | - | - |
| 1778065869 | 22.22° C | 100% | 1006.1 hPa | - | - | - | - |
| 1778064969 | 22.22° C | 100% | 1006.6 hPa | - | - | - | - |
| 1778064069 | 22.78° C | 100% | 1006.8 hPa | - | - | - | - |
| 1778063169 | 21.67° C | 100% | 1007 hPa | - | - | - | - |
| 1778062268 | 20.56° C | 100% | 1007.1 hPa | - | - | - | - |
| 1778061368 | 21.67° C | 100% | 1006.9 hPa | - | - | - | - |
| 1778060468 | 23.33° C | 100% | 1006.8 hPa | - | - | - | - |
| 1778059568 | 22.22° C | 100% | 1006.9 hPa | - | - | - | - |
| 1778058668 | 22.22° C | 100% | 1006.8 hPa | - | - | - | - |
| 1778057768 | 23.33° C | 100% | 1006.7 hPa | - | - | - | - |
| 1778056868 | 22.22° C | 100% | 1006.1 hPa | - | - | - | - |
| 1778055968 | 20° C | 100% | 1005.7 hPa | - | - | - | - |
| 1778055068 | 18.33° C | 100% | 1005.6 hPa | - | - | - | - |
| 1778054168 | 18.33° C | 100% | 1005.4 hPa | - | - | - | - |
| 1778053268 | 17.78° C | 100% | 1005.2 hPa | - | - | - | - |
| 1778052368 | 16.67° C | 100% | 1005.1 hPa | - | - | - | - |
* Rain since midnight (hover to see other rain measurements)
** Current wind speed in m/s (hover to see current wind gust speed)